Wind_Speed
18 21 22 20 18 18 19 19 19 18 18 18 18 19 18 16 17 19 18 17 18 21 23 21 19 18 17 16 16 15 14 12 12 11 10 13 13 10 10 11 19 17 8
24 23 23 20 19 19 19 19 19 19 19 18 18 18 18 18 19 19 18 20 22 21 20 19 17 16 15 15 14 12 10 9 10 13 18 23 23 24 20 21 22 23 23
26 25 25 21 20 20 20 20 20 20 19 18 19 19 19 21 20 19 19 21 20 19 17 16 16 16 14 13 11 11 10 9 9 11 25 22 23 24 24 24 25 25 24
26 25 25 22 20 20 21 21 20 20 20 20 20 21 22 20 18 18 20 19 17 15 15 15 15 13 13 12 12 12 12 13 15 22 23 22 23 24 24 23 24 24 24
25 25 26 24 22 21 21 21 21 20 21 22 23 24 22 19 18 18 19 18 15 13 13 13 13 13 13 12 12 13 17 25 26 23 21 21 22 22 23 24 23 24 24
25 23 27 25 23 21 20 20 20 21 22 24 24 23 20 18 18 18 18 16 14 12 12 12 12 13 13 13 14 18 26 26 23 21 24 24 23 22 23 23 23 23 24
27 24 28 25 24 22 21 19 20 22 24 24 23 21 18 17 17 17 16 13 11 11 11 11 11 12 13 14 17 21 29 23 21 23 23 22 23 23 23 23 22 22 23
30 26 28 26 24 22 21 20 21 23 24 23 22 20 18 17 16 15 14 10 11 12 11 10 10 11 12 14 17 24 26 23 21 23 21 22 23 22 22 21 22 22 21
28 26 28 27 25 22 21 20 23 24 24 22 21 19 18 16 15 14 11 11 11 11 10 9 9 10 11 14 16 20 23 23 22 22 19 21 21 21 22 21 21 20 20
30 26 26 25 25 23 22 22 24 24 23 22 20 20 17 15 14 13 10 12 12 10 9 8 8 9 12 15 20 25 31 21 19 21 19 20 20 20 21 20 20 20 19
29 27 27 26 25 22 22 25 25 24 23 21 19 19 16 15 16 14 15 14 11 10 8 7 7 11 14 18 22 25 20 17 18 19 18 19 19 20 18 20 20 20 20
33 29 29 27 27 24 22 26 23 24 21 19 20 19 15 18 17 17 14 13 11 8 8 9 13 17 18 15 16 20 16 17 20 18 19 18 18 19 18 19 18 19 19
29 34 28 29 29 29 24 25 22 21 21 20 20 18 20 21 19 20 18 15 11 7 10 14 15 13 14 13 13 15 17 15 15 18 17 18 16 18 17 19 16 17 17
27 30 33 30 31 31 28 30 30 30 30 22 20 20 21 19 20 22 20 16 13 11 14 13 13 15 15 15 15 16 16 15 14 17 17 15 13 16 17 18 14 16 17
26 29 33 31 30 34 32 25 31 31 30 21 21 20 23 18 20 23 19 17 13 14 13 14 15 15 15 15 15 15 16 17 15 14 16 16 15 14 14 15 15 15 15
30 32 33 33 33 34 32 32 30 32 31 25 20 22 24 21 21 23 21 17 15 14 14 15 15 15 14 14 14 14 13 13 14 13 11 12 14 14 13 11 12 14 13
30 33 34 34 34 34 27 32 30 32 31 27 21 24 25 21 21 22 22 18 16 15 16 16 15 14 14 13 13 12 12 11 11 12 11 9 7 7 13 12 8 10 11
33 35 33 35 35 34 29 32 31 32 30 22 21 26 26 23 22 22 23 19 18 17 15 15 15 14 14 14 13 12 11 12 12 11 10 9 8 7 8 12 9 7 10
34 36 36 36 37 35 31 30 32 32 29 21 21 27 27 25 24 22 24 21 21 18 16 15 15 15 15 14 13 12 11 11 10 9 9 8 9 8 6 8 4 6 9
29 34 36 37 39 36 35 32 32 29 27 19 25 26 28 26 26 25 26 26 25 20 18 16 15 15 15 15 13 12 11 10 9 8 8 7 7 8 8 7 5 3 5
30 32 37 39 40 39 41 40 34 29 26 22 24 27 28 27 27 28 30 27 26 24 21 21 18 16 16 16 14 12 9 8 8 7 7 6 6 5 6 6 6 4 3
31 35 36 39 40 42 42 39 31 21 21 22 21 28 29 28 28 27 30 30 29 28 23 22 20 18 16 17 14 10 8 5 6 7 6 5 6 4 4 5 6 7 6
33 36 36 37 41 45 41 36 30 16 19 22 24 25 30 31 30 28 30 31 31 32 29 24 23 21 17 18 16 6 6 5 11 9 9 7 7 6 6 5 4 4 5
29 34 37 37 41 43 44 40 38 43 27 27 31 26 30 32 33 32 29 32 35 31 29 26 26 25 17 18 19 14 9 8 9 7 11 11 11 9 8 6 4 3 3
23 31 35 38 40 43 45 42 37 37 37 27 26 27 31 35 35 35 33 31 30 33 31 29 29 29 25 17 17 17 13 9 9 7 8 13 12 12 11 9 7 5 4
21 25 31 37 42 47 43 46 41 38 38 36 31 31 32 37 39 34 37 34 31 31 32 30 30 29 27 21 17 17 14 10 9 7 6 11 12 13 12 12 11 9 8
Wind_Direction
165 174 167 161 159 161 164 164 164 160 154 149 144 137 135 131 127 121 111 105 105 108 109 113 113 105 100 93 87 85 83 77 76 75 81 81 80 93 92 88 78 76 94
159 169 167 164 161 160 165 165 163 159 157 154 147 142 138 134 127 117 113 110 113 112 116 112 102 95 93 91 85 78 72 71 71 70 78 78 80 79 84 84 81 79 80
157 163 168 168 163 162 163 165 163 160 159 154 148 144 141 136 127 119 116 118 117 117 115 101 89 88 90 85 78 73 71 73 80 88 89 83 79 80 82 81 81 81 81
156 159 167 169 166 165 163 164 164 162 159 154 150 145 140 134 126 123 123 121 120 121 112 95 87 82 80 75 70 68 69 76 88 86 82 79 82 81 82 82 81 81 78
157 156 169 169 169 167 167 165 166 163 158 153 149 144 141 135 131 127 127 126 130 120 101 94 84 76 74 68 62 73 86 89 76 83 87 88 85 83 84 82 81 81 81
158 160 167 169 171 171 171 168 166 162 157 152 149 147 144 139 134 131 133 137 134 110 103 93 84 80 71 64 76 91 94 93 91 86 87 88 87 85 85 82 80 80 81
159 171 166 171 172 173 174 172 167 162 157 154 151 150 145 136 138 138 143 141 129 116 105 94 89 78 64 71 86 100 100 102 93 91 87 86 85 87 85 84 83 74 79
161 169 170 172 173 175 175 173 168 164 161 158 156 155 147 140 145 143 145 139 132 117 106 97 86 73 68 80 94 102 91 89 92 82 84 88 87 86 85 81 80 79 77
165 163 168 171 175 176 176 174 170 167 165 163 161 160 154 149 152 151 156 137 129 116 105 96 83 66 79 91 95 105 111 100 94 90 89 89 87 85 85 82 79 78 76
166 165 164 168 170 174 175 175 172 170 169 167 167 163 162 149 153 151 161 140 126 115 101 97 78 82 96 101 104 96 87 82 91 101 92 92 92 88 86 84 83 81 77
171 169 168 170 167 166 169 174 174 174 174 172 169 169 152 148 151 151 142 138 128 113 99 86 84 96 99 103 100 90 88 93 90 90 92 93 90 90 86 83 80 77 76
178 171 172 175 166 169 168 171 170 175 170 164 164 159 156 161 166 161 149 138 124 120 104 91 103 100 94 106 87 86 100 101 86 87 97 94 88 91 87 83 82 78 76
178 183 174 177 181 172 170 166 172 171 173 172 167 165 182 166 170 166 156 148 137 135 114 113 98 114 118 110 106 101 93 91 101 99 92 95 90 90 90 85 78 76 75
182 188 182 183 185 182 177 174 176 178 180 172 177 179 181 164 171 169 160 155 136 134 131 125 125 122 115 113 108 103 105 102 100 97 96 97 83 90 86 91 81 79 79
186 183 191 190 185 186 184 177 185 188 186 173 178 188 177 172 175 172 166 155 149 144 136 133 128 122 117 114 107 104 107 107 104 99 111 116 98 87 83 87 81 82 81
196 186 194 197 191 190 190 192 190 192 191 178 179 190 186 177 175 178 168 168 153 145 140 136 134 128 126 121 115 111 111 107 109 105 104 120 119 114 94 82 73 84 80
198 195 199 198 195 194 194 196 197 197 196 190 190 190 193 182 185 184 173 164 156 154 146 147 137 135 130 129 125 119 115 113 116 114 112 107 106 117 114 109 73 57 66
198 199 203 201 200 196 198 201 203 203 200 191 197 196 198 190 189 189 181 168 166 159 154 150 145 141 138 134 130 123 122 117 120 120 121 116 110 98 115 122 121 77 80
206 205 205 206 206 200 199 205 207 208 199 199 196 199 201 197 193 192 187 179 175 165 161 155 152 149 147 142 138 132 127 121 117 120 123 127 129 120 122 143 123 105 112
217 216 213 214 212 205 202 207 211 210 201 198 210 203 204 202 202 199 195 199 186 174 171 166 163 156 154 149 145 137 133 131 131 126 131 125 132 133 135 133 89 143 123
204 210 213 214 211 208 205 213 211 206 201 201 211 209 207 207 203 200 204 204 201 196 189 179 172 169 162 160 148 140 139 146 139 145 140 135 137 138 141 145 137 126 119
211 209 211 215 213 211 211 213 216 202 205 208 210 212 210 210 206 204 207 208 208 206 207 202 190 172 173 180 166 156 155 174 183 170 167 163 165 153 155 157 158 160 156
217 214 216 215 219 218 212 208 213 202 207 213 211 214 211 210 207 213 208 211 211 212 212 209 206 198 188 195 185 178 174 203 181 202 198 194 196 186 193 186 170 175 185
216 222 226 218 218 220 215 207 206 217 210 217 210 213 213 210 209 217 214 214 219 219 217 219 215 213 201 199 205 207 191 177 188 186 212 210 209 207 207 204 203 200 211
216 214 223 224 221 220 220 209 202 205 218 219 218 213 222 215 215 221 217 215 220 223 223 223 220 218 219 206 215 210 215 211 197 200 202 209 215 215 219 219 218 223 233
218 216 218 222 219 216 224 216 207 200 210 217 221 215 213 220 219 224 218 221 221 224 224 228 228 230 221 223 215 210 209 201 214 204 211 206 209 218 215 228 233 231 238
Height
1541 1541 1543 1547 1550 1553 1556 1558 1560 1562 1564 1566 1568 1570 1571 1572 1574 1575 1576 1577 1576 1577 1578 1578 1578 1578 1579 1579 1579 1579 1579 1578 1578 1577 1577 1576 1576 1575 1575 1575 1576 1574 1573
1540 1540 1544 1548 1551 1554 1557 1559 1561 1563 1566 1568 1570 1572 1573 1575 1576 1578 1579 1579 1579 1580 1580 1581 1581 1581 1581 1581 1582 1581 1581 1580 1579 1579 1578 1578 1578 1578 1577 1577 1576 1575 1575
1539 1540 1545 1548 1552 1556 1559 1561 1563 1565 1568 1570 1572 1574 1576 1577 1579 1580 1581 1582 1583 1583 1583 1584 1583 1584 1584 1584 1584 1583 1582 1581 1581 1581 1581 1584 1583 1582 1581 1580 1580 1579 1579
1539 1542 1545 1549 1553 1557 1560 1563 1565 1567 1569 1571 1574 1576 1579 1580 1581 1583 1584 1585 1586 1586 1586 1586 1586 1587 1587 1586 1585 1584 1583 1583 1583 1584 1586 1586 1586 1585 1584 1584 1583 1583 1581
1541 1545 1546 1550 1554 1558 1562 1564 1567 1569 1571 1573 1576 1578 1581 1583 1584 1585 1586 1587 1588 1588 1589 1589 1589 1589 1589 1588 1587 1586 1586 1586 1589 1591 1592 1590 1589 1588 1587 1587 1587 1586 1585
1543 1547 1547 1551 1556 1559 1563 1566 1569 1571 1573 1575 1578 1581 1583 1585 1586 1587 1588 1589 1590 1591 1592 1592 1591 1592 1591 1590 1589 1589 1589 1592 1593 1592 1590 1591 1591 1591 1590 1590 1590 1590 1589
1542 1546 1548 1553 1557 1561 1564 1568 1571 1573 1575 1578 1580 1583 1585 1587 1588 1589 1590 1592 1592 1593 1594 1594 1593 1594 1593 1592 1592 1592 1593 1595 1595 1593 1594 1594 1595 1594 1593 1593 1593 1592 1592
1539 1544 1547 1553 1558 1562 1566 1569 1572 1575 1577 1580 1583 1585 1587 1589 1590 1591 1593 1594 1595 1595 1596 1596 1596 1596 1595 1595 1595 1595 1597 1598 1598 1598 1599 1598 1599 1598 1597 1596 1595 1596 1595
1540 1544 1548 1553 1558 1563 1567 1571 1574 1577 1579 1582 1585 1587 1589 1591 1593 1594 1595 1596 1597 1597 1597 1598 1598 1598 1597 1598 1598 1598 1599 1599 1600 1605 1603 1602 1602 1601 1600 1599 1598 1598 1598
1540 1545 1550 1553 1558 1563 1567 1571 1575 1578 1581 1584 1587 1589 1591 1593 1595 1596 1597 1598 1599 1599 1599 1599 1600 1600 1600 1601 1602 1602 1604 1608 1606 1605 1606 1606 1605 1604 1603 1602 1601 1601 1600
1540 1545 1549 1553 1559 1565 1568 1571 1576 1580 1583 1586 1588 1591 1594 1596 1597 1598 1597 1599 1600 1601 1602 1601 1602 1602 1603 1604 1606 1606 1609 1609 1610 1608 1610 1609 1608 1608 1606 1604 1604 1603 1603
1538 1544 1549 1553 1558 1565 1568 1570 1576 1580 1584 1588 1590 1592 1598 1597 1597 1598 1599 1600 1602 1603 1604 1604 1604 1606 1608 1610 1610 1612 1613 1611 1611 1613 1612 1613 1612 1611 1609 1608 1607 1606 1605
1540 1544 1549 1553 1556 1561 1568 1571 1577 1580 1585 1588 1590 1594 1594 1596 1597 1598 1600 1602 1603 1605 1605 1606 1607 1613 1614 1615 1616 1616 1617 1618 1617 1615 1616 1616 1616 1615 1613 1612 1610 1609 1608
1540 1542 1546 1551 1554 1559 1563 1568 1572 1576 1579 1587 1590 1591 1591 1595 1596 1598 1600 1602 1605 1608 1608 1610 1611 1612 1613 1615 1616 1618 1619 1620 1619 1618 1619 1620 1619 1618 1616 1615 1614 1612 1611
1538 1543 1546 1549 1552 1557 1561 1567 1570 1573 1577 1584 1588 1588 1590 1596 1595 1597 1600 1603 1606 1607 1609 1611 1611 1613 1614 1616 1618 1619 1620 1621 1623 1622 1620 1621 1621 1621 1619 1618 1617 1616 1614
1535 1540 1543 1548 1551 1555 1560 1564 1568 1571 1575 1581 1586 1584 1589 1594 1595 1597 1600 1603 1606 1608 1610 1611 1613 1614 1616 1617 1618 1620 1621 1623 1623 1625 1625 1623 1621 1621 1622 1621 1620 1618 1616
1532 1538 1541 1545 1550 1554 1558 1563 1566 1570 1573 1578 1583 1584 1587 1591 1594 1597 1599 1603 1606 1609 1610 1610 1612 1615 1617 1618 1618 1619 1621 1621 1622 1624 1627 1627 1625 1623 1622 1622 1623 1620 1619
1529 1533 1539 1543 1547 1553 1556 1560 1564 1568 1572 1578 1579 1582 1585 1589 1593 1596 1599 1602 1605 1607 1609 1611 1613 1615 1617 1619 1620 1621 1621 1621 1622 1623 1625 1627 1628 1627 1625 1624 1624 1623 1622
1524 1529 1534 1540 1544 1549 1555 1557 1562 1566 1571 1575 1578 1581 1584 1587 1591 1595 1598 1601 1603 1606 1609 1611 1613 1615 1617 1619 1621 1621 1622 1622 1624 1625 1624 1624 1624 1627 1627 1625 1624 1623 1623
1520 1525 1529 1533 1540 1546 1552 1556 1559 1564 1569 1575 1575 1578 1582 1585 1588 1592 1596 1598 1601 1605 1607 1610 1612 1614 1617 1619 1621 1621 1623 1624 1625 1625 1624 1625 1625 1625 1627 1628 1627 1624 1623
1517 1521 1526 1530 1534 1540 1545 1550 1555 1560 1567 1572 1572 1575 1579 1582 1585 1589 1593 1596 1600 1602 1605 1607 1610 1612 1616 1618 1619 1622 1622 1623 1624 1626 1626 1626 1625 1625 1625 1626 1628 1628 1624
1513 1516 1521 1524 1529 1533 1540 1547 1554 1560 1565 1570 1572 1573 1576 1579 1582 1586 1590 1594 1597 1600 1603 1606 1608 1611 1614 1615 1619 1622 1624 1626 1625 1625 1626 1626 1625 1626 1625 1625 1624 1624 1625
1507 1511 1515 1520 1523 1527 1534 1541 1550 1559 1564 1569 1570 1570 1572 1576 1579 1582 1586 1590 1594 1597 1599 1603 1606 1608 1610 1613 1617 1621 1622 1622 1624 1624 1623 1625 1624 1625 1624 1624 1623 1623 1622
1503 1507 1510 1515 1519 1523 1529 1536 1541 1543 1557 1562 1565 1568 1568 1571 1575 1578 1582 1587 1590 1593 1597 1600 1603 1606 1608 1610 1613 1616 1617 1619 1621 1623 1623 1623 1623 1623 1623 1623 1622 1622 1621
1499 1501 1505 1510 1514 1518 1522 1531 1535 1540 1549 1558 1562 1565 1563 1566 1571 1573 1578 1582 1585 1589 1593 1597 1600 1602 1606 1609 1610 1613 1615 1615 1617 1620 1620 1621 1621 1621 1620 1621 1621 1620 1620
1495 1498 1500 1505 1509 1512 1517 1524 1531 1535 1540 1551 1555 1557 1559 1560 1564 1568 1572 1576 1581 1584 1588 1591 1596 1600 1602 1605 1608 1610 1612 1614 1615 1617 1618 1619 1619 1619 1619 1618 1619 1619 1619